Regional Weather Roundup
Issued by NWS

Home | Current Version | Previous Version | Graphics & Text | Print | Product List | Glossary On
Versions: 1 2 3 4 5 6 7 8 9 10 11 12 13 14 15 16 17 18 19 20 21 22 23 24 25 26 27 28 29 30 31 32 33 34 35 36 37 38 39 40 41 42 43 44 45 46 47 48 49 50
000
ASUS43 KBIS 152102
RWRND

NORTH DAKOTA REGIONAL WEATHER ROUNDUP
NATIONAL WEATHER SERVICE BISMARCK ND
400 PM CDT TUE AUG 15 2017

NOTE: "FAIR" INDICATES FEW OR NO CLOUDS BELOW 12,000 FEET WITH NO
SIGNIFICANT WEATHER AND/OR OBSTRUCTIONS TO VISIBILITY.


NDZ001>003-009>011-017-152200-
NORTHWEST NORTH DAKOTA

CITY           SKY/WX    TMP DP  RH WIND       PRES   REMARKS
WILLISTON      CLOUDY    74  61  63 SE5       29.84F
MINOT          CLOUDY    67  63  87 E5        29.86F
MINOT AFB      CLOUDY    67  63  86 SE9       29.85F
$$

NDZ018>021-031>035-040>046-152200-
SOUTHWEST NORTH DAKOTA

CITY           SKY/WX    TMP DP  RH WIND       PRES   REMARKS
BISMARCK       HVY RAIN  66  65  96 N5        29.85R FOG
DICKINSON      CLOUDY    68  62  81 CALM      29.85S
GARRISON         N/A     62  62 100 E9        29.85F
HETTINGER ARPT PTSUNNY   70  59  68 W5        29.86F
$$

NDZ004>008-012>016-024-026-027-054-152200-
NORTHEAST NORTH DAKOTA

CITY           SKY/WX    TMP DP  RH WIND       PRES   REMARKS
GRAND FORKS    CLOUDY    75  61  61 S9        29.89F
GRND FRKS AFB  CLOUDY    73  59  61 S13       29.90F
DEVILS LAKE    CLOUDY    70  60  70 SE14      29.90S
$$

NDZ022-023-025-028>030-036>039-047>053-152200-
SOUTHEAST NORTH DAKOTA

CITY           SKY/WX    TMP DP  RH WIND       PRES   REMARKS
FARGO          CLOUDY    73  58  59 SE14      29.91S
JAMESTOWN      CLOUDY    69  62  78 SE7       29.87F
$$





USA.gov is the U.S. government's official web portal to all federal, state and local government web resources and services.